Homestead AFB, FL

5:03 AM EST on January 24, 2018 (GMT -0500)
Dade County-Homestead Regional

Weather History for KHST - November, 2013

Change the Weather History Date:

Saturday, November 2, 2013

  Actual Average Record
Temperature  
Mean Temperature 78 °F -  
Max Temperature 88 °F 83 °F 93 °F (1997)
Min Temperature 68 °F 66 °F 46 °F (1957)
Cooling Degree Days 13    
Growing Degree Days 28 (Base 50)    
Moisture  
Dew Point 69 °F    
Average Humidity 88    
Maximum Humidity 100    
Minimum Humidity 47    
Precipitation  
Precipitation 0.00 in - - ()
Sea Level Pressure  
Sea Level Pressure 29.91 in    
Wind  
Wind Speed 2 mph (West)    
Max Wind Speed 13 mph    
Max Gust Speed 18 mph    
Visibility 8 miles    
Events      
Averages and records for this station are not official NWS values.
T = Trace of Precipitation, MM = Missing Value Source: NWS Daily Summary

Daily Weather History Graph

Daily Weather History Graph

Search for Another Location

Airport or City:

Trip Planner

Search our weather history database for the weather conditions in past years. The results will help you decide how hot, cold, wet, or windy it might be!

Date:

Astronomy

Nov. 02, 2013 Rise Set
Actual Time 7:30 AM EDT 6:39 PM EDT
Civil Twilight 7:06 AM EDT 7:03 PM EDT
Nautical Twilight 6:39 AM EDT 7:30 PM EDT
Astronomical Twilight 6:12 AM EDT 7:57 PM EDT
Moon 6:30 AM EDT (11/2) 6:07 PM EDT (11/2)
Length of Visible Light 11h 56m
Length of Day
11h 09m
Waning Crescent, 1% of the Moon is Illuminated
Nov 2
Waning Crescent
Nov 3
New
Nov 10
First Quarter
Nov 17
Full
Nov 25
Last Quarter

Hourly Weather History & Observations

Time (EDT) Temp. Heat Index Dew Point Humidity Pressure Visibility Wind Dir Wind Speed Gust Speed Precip Events Conditions
12:58 AM 71.6 °F - 71.1 °F 98% 29.95 in 10.0 mi Calm Calm - N/A   Clear
1:23 AM 71.6 °F - 69.8 °F 94% 29.93 in 3.0 mi SSW 1.2 mph - N/A   Clear
1:28 AM 71.6 °F - 69.8 °F 94% 29.93 in 1.0 mi Calm Calm - N/A   Clear
1:38 AM 71.6 °F - 71.6 °F 100% 29.93 in 3.0 mi West 1.2 mph - N/A   Clear
1:43 AM 71.6 °F - 71.6 °F 100% 29.93 in 10.0 mi West 2.3 mph - N/A   Clear
1:58 AM 71.1 °F - 70.3 °F 98% 29.94 in 10.0 mi West 2.3 mph - N/A   Clear
2:58 AM 70.7 °F - 70.2 °F 98% 29.92 in 10.0 mi Calm Calm - N/A   Clear
3:38 AM 69.8 °F - 69.8 °F 100% 29.91 in 6.0 mi Calm Calm - N/A   Clear
3:48 AM 69.8 °F - 69.8 °F 100% 29.90 in 10.0 mi West 1.2 mph - N/A   Clear
3:58 AM 70.0 °F - 69.1 °F 97% 29.91 in 10.0 mi Calm Calm - N/A   Clear
4:08 AM 69.8 °F - 69.8 °F 100% 29.90 in 3.0 mi West 1.2 mph - N/A   Clear
4:13 AM 69.8 °F - 69.8 °F 100% 29.90 in 1.2 mi West 2.3 mph - N/A   Clear
4:18 AM 69.8 °F - 69.8 °F 100% 29.90 in 1.0 mi West 1.2 mph - N/A   Clear
4:23 AM 69.8 °F - 69.8 °F 100% 29.90 in 1.8 mi West 1.2 mph - N/A   Clear
4:28 AM 69.8 °F - 69.8 °F 100% 29.90 in 10.0 mi West 2.3 mph - N/A   Clear
4:58 AM 69.8 °F - 69.4 °F 99% 29.91 in 10.0 mi Calm Calm - N/A   Clear
5:58 AM 68.5 °F - 68.2 °F 99% 29.90 in 8.0 mi Calm Calm - N/A   Clear
6:08 AM 68.0 °F - 68.0 °F 100% 29.89 in 10.0 mi Calm Calm - N/A   Clear
6:18 AM 68.0 °F - 68.0 °F 100% 29.89 in 5.0 mi Calm Calm - N/A   Clear
6:23 AM 68.0 °F - 68.0 °F 100% 29.89 in 2.0 mi WNW 1.2 mph - N/A   Clear
6:28 AM 68.0 °F - 68.0 °F 100% 29.89 in 2.5 mi WNW 2.3 mph - N/A   Clear
6:33 AM 68.0 °F - 68.0 °F 100% 29.89 in 3.0 mi West 2.3 mph - N/A   Clear
6:38 AM 68.0 °F - 68.0 °F 100% 29.89 in 2.0 mi West 1.2 mph - N/A   Clear
6:48 AM 68.0 °F - 66.2 °F 94% 29.89 in 7.0 mi West 2.3 mph - N/A   Clear
6:53 AM 68.0 °F - 68.0 °F 100% 29.90 in 10.0 mi Calm Calm - N/A   Clear
6:58 AM 68.4 °F - 67.6 °F 98% 29.91 in 8.0 mi Calm Calm - N/A   Clear
7:13 AM 68.0 °F - 68.0 °F 100% 29.90 in 10.0 mi NE 2.3 mph - N/A   Clear
7:58 AM 69.8 °F - 68.0 °F 94% 29.92 in 10.0 mi Calm Calm - N/A   Mostly Cloudy
8:58 AM 73.9 °F - 72.0 °F 93% 29.93 in 10.0 mi Calm Calm - N/A   Partly Cloudy
9:58 AM 79.9 °F - 72.9 °F 79% 29.95 in 10.0 mi WSW 5.8 mph - N/A   Partly Cloudy
10:58 AM 82.2 °F 86.9 °F 71.4 °F 70% 29.95 in 10.0 mi SW 9.2 mph - N/A   Clear
11:58 AM 84.4 °F 89.7 °F 71.6 °F 65% 29.93 in 10.0 mi West 9.2 mph - N/A   Clear
12:58 PM 86.9 °F 88.9 °F 65.7 °F 49% 29.91 in 10.0 mi West 5.8 mph - N/A   Clear
1:58 PM 87.1 °F 89.2 °F 65.8 °F 49% 29.88 in 10.0 mi WSW 12.7 mph 18.4 mph N/A   Partly Cloudy
2:58 PM 88.3 °F 92.4 °F 68.9 °F 52% 29.86 in 10.0 mi WSW 11.5 mph - N/A   Clear
3:58 PM 87.8 °F 89.7 °F 65.3 °F 47% 29.85 in 10.0 mi WNW 10.4 mph - N/A   Partly Cloudy
4:58 PM 87.1 °F 88.9 °F 65.1 °F 48% 29.84 in 10.0 mi WNW 10.4 mph - N/A   Clear
5:58 PM 84.0 °F 86.0 °F 65.5 °F 54% 29.85 in 10.0 mi WNW 12.7 mph - N/A   Clear
6:58 PM 80.2 °F 83.0 °F 68.4 °F 67% 29.88 in 10.0 mi West 10.4 mph - N/A   Clear
7:58 PM 77.7 °F - 69.6 °F 76% 29.91 in 10.0 mi West 5.8 mph - N/A   Clear
8:58 PM 76.5 °F - 70.7 °F 82% 29.92 in 10.0 mi WNW 6.9 mph - N/A   Clear
9:58 PM 75.0 °F - 71.8 °F 90% 29.93 in 10.0 mi SSW 2.3 mph - N/A   Clear
10:58 PM 74.5 °F - 71.4 °F 90% 29.93 in 10.0 mi WNW 4.6 mph - N/A   Clear
11:58 PM 74.3 °F - 71.6 °F 91% 29.92 in 10.0 mi NW 4.6 mph - N/A   Clear